This demonstration page uses our WeatherBlox Daily Observations layout. Learn more.

Left ArrowRight Arrow

39.08367, -84.50855

Hourly Observations for July 10, 2020

Temp ( °F °C ) Dew Point ( °F °C ) Humidity (%) Winds ( mph kmh ) Pressure ( in mb ) Visibility ( mi km ) Precip ( " mm )
12:53 am 00:53 Clear with Mist and Fog 71 21.7 69 20.6 94 94 SW 3 6 29.88 1012 6 10 N/A
1:53 am 01:53 Clear 72 22.2 70 21.1 94 94 N N/A 29.87 1012 7 11 N/A
2:53 am 02:53 Clear with Mist and Fog 72 22.2 70 21.1 94 94 N N/A 29.87 1011 5 8 N/A
3:05 am 03:05 Clear with Mist and Fog 71 21.7 70 21.1 96 96 N N/A 29.87 1011 2 3 N/A
3:14 am 03:14 Clear with Mist and Fog 72 22.2 70 21.1 94 94 N N/A 29.86 1011 6 10 N/A
3:53 am 03:53 Clear with Mist and Fog 72 22.2 70 21.1 94 94 N N/A 29.86 1011 6 10 N/A
4:53 am 04:53 Clear with Mist and Fog 71 21.7 70 21.1 96 96 N N/A 29.85 1011 5 8 N/A
5:02 am 05:02 Clear with Mist and Fog 71 21.7 70 21.1 96 96 N N/A 29.85 1011 2 2 N/A
5:09 am 05:09 Mostly Cloudy with Fog 71 21.7 70 21.1 96 96 N N/A 29.85 1011 1 1 N/A
5:18 am 05:18 Clear with Mist and Fog 72 22.2 70 21.1 94 94 N N/A 29.84 1011 2 3 N/A
5:37 am 05:37 Clear with Mist and Fog 71 21.7 70 21.1 96 96 N N/A 29.85 1011 4 6 N/A
5:53 am 05:53 Clear with Mist and Fog 71 21.7 70 21.1 96 96 N N/A 29.85 1011 3 5 N/A
6:53 am 06:53 Partly Cloudy with Mist and Fog 72 22.2 70 21.1 94 94 N N/A 29.85 1011 6 10 N/A
7:53 am 07:53 Partly Cloudy with Mist and Fog 75 23.9 73 22.8 94 94 N N/A 29.85 1011 6 10 N/A
8:53 am 08:53 Partly Cloudy 79 26.1 74 23.3 85 85 S 3 6 29.85 1011 10 16 N/A
9:02 am 09:02 Partly Cloudy with Thunderstorms 80 26.7 74 23.3 82 82 SSW 6 9 29.85 1011 10 16 N/A
9:19 am 09:19 Windy with Storms Likely 82 27.8 74 23.3 77 77 WSW 22 35 29.85 1011 4 6 0.00 0.00
9:53 am 09:53 Partly Cloudy with Nearby Thunderstorms 75 23.9 72 22.2 90 90 SSW 7 11 29.86 1011 10 16 0.18 4.57
10:06 am 10:06 Mostly Sunny 77 25 73 22.8 88 88 SSW 7 11 29.84 1010 10 16 N/A
10:53 am 10:53 Partly Cloudy 84 28.9 75 23.9 74 74 SW 9 15 29.83 1010 10 16 N/A
11:51 am 11:51 Partly Cloudy with Nearby Thunderstorms 88 31 75 24 66 66 S 17 28 29.79 1009 10 16 N/A
11:53 am 11:53 Partly Cloudy with Nearby Thunderstorms 87 30.6 75 23.9 67 67 SSW 14 22 29.81 1010 10 16 N/A
12:14 pm 12:14 Partly Cloudy with Light Rain 87 30.6 74 23.3 65 65 W 13 20 29.79 1009 9 14 0.01 0.25
12:53 pm 12:53 Mostly Sunny 87 30.6 75 23.9 67 67 WSW 10 17 29.79 1009 10 16 0.02 0.51
1:53 pm 13:53 Partly Cloudy 87 30.6 73 22.8 63 63 W 18 30 29.77 1008 10 16 N/A
2:53 pm 14:53 Mostly Cloudy 88 31.1 72 22.2 59 59 W 12 19 29.78 1009 10 16 N/A
3:53 pm 15:53 Partly Cloudy 87 30.6 67 19.4 51 51 W 15 24 29.80 1009 10 16 N/A
4:53 pm 16:53 Partly Cloudy 83 28.3 66 18.9 57 57 W 18 30 29.81 1010 10 16 N/A
5:53 pm 17:53 Partly Cloudy 83 28.3 67 19.4 59 59 WNW 14 22 29.82 1010 10 16 N/A
6:53 pm 18:53 Mostly Cloudy 82 27.8 66 18.9 58 58 W 15 24 29.82 1010 10 16 N/A
7:53 pm 19:53 Mostly Cloudy 83 28.3 64 17.8 53 53 NW 10 17 29.82 1010 10 16 N/A
8:53 pm 20:53 Sunny 82 27.8 64 17.8 55 55 WNW 10 17 29.83 1010 10 16 N/A
9:53 pm 21:53 Mostly Cloudy 79 26.1 65 18.3 62 62 WSW 6 9 29.84 1010 10 16 N/A
10:53 pm 22:53 Partly Cloudy 79 26.1 65 18.3 62 62 W 6 9 29.85 1011 10 16 N/A
11:53 pm 23:53 Mostly Cloudy 78 25.6 66 18.9 67 67 W 3 6 29.85 1011 10 16 N/A

Powered by AerisWeather